Lid_Strength_Index
11 13 14 13 14 15 15 16 17 16 13 13 14 14 13 12 12 12 11 11 11 10 9 9 9 9 7 3 1 1 1 1 1 1 2 2 2 1 1 1 2 2 2 3
12 15 12 12 14 14 15 16 16 15 13 14 15 14 13 12 12 11 11 11 11 11 11 10 10 10 9 7 3 1 1 1 1 1 1 1 1 1 1 1 1 2 2 3
14 13 11 12 14 14 16 16 16 16 15 15 16 16 15 14 13 12 12 12 12 12 11 11 11 11 10 10 8 4 1 1 1 0 0 1 2 1 1 1 1 2 2 2
13 12 12 14 14 14 16 14 14 15 16 18 16 20 16 15 14 13 13 13 12 12 12 12 11 9 9 9 10 8 4 1 1 0 1 1 2 3 1 1 0 0 2 2
14 13 13 14 13 13 14 13 14 15 17 17 18 18 17 16 15 14 13 12 13 12 12 11 10 10 9 9 9 10 8 4 1 1 1 1 2 1 1 1 1 1 1 1
13 12 12 13 13 13 13 14 15 16 17 20 18 18 19 17 15 15 13 13 13 12 12 11 10 10 10 9 8 7 8 7 4 1 1 1 2 2 3 3 2 1 1 1
14 14 13 12 13 13 14 15 19 20 21 20 19 19 17 15 15 14 13 13 11 11 11 11 11 10 10 10 9 8 6 5 4 2 1 2 2 2 3 3 3 2 3 4
17 17 13 12 12 14 14 15 18 23 22 20 18 19 17 15 14 13 13 12 11 11 11 10 10 10 10 10 10 9 8 8 5 3 2 2 3 3 4 4 3 2 2 3
17 17 14 13 13 12 14 16 15 19 26 22 19 17 15 14 13 13 12 12 11 11 11 11 11 10 10 10 10 9 9 9 8 7 5 5 5 5 4 5 5 4 4 4
14 17 15 14 13 13 14 13 17 18 24 25 21 20 18 16 13 13 12 12 11 11 11 11 11 11 11 10 10 9 9 9 9 8 8 7 7 6 5 5 4 5 5 5
14 15 16 14 15 15 15 16 16 16 18 22 24 20 16 15 13 12 12 12 11 11 11 11 11 11 11 10 10 10 10 9 9 9 8 8 8 7 7 7 6 6 6 6
13 15 17 16 14 14 14 15 15 17 19 19 19 18 14 14 12 12 11 11 12 12 11 11 11 11 11 11 11 11 11 11 10 10 9 9 9 8 8 8 8 7 7 7
13 16 20 18 16 15 15 15 15 15 16 19 19 18 13 13 12 12 12 11 11 11 11 11 11 12 12 12 12 12 12 12 12 11 10 10 10 10 10 9 9 9 8 8
10 15 17 18 18 16 17 16 15 15 18 17 17 17 15 14 13 13 12 12 12 12 12 12 12 12 12 12 13 13 13 13 13 12 12 12 12 12 11 11 11 11 10 10
12 18 16 15 15 16 17 16 16 16 15 17 15 16 15 13 13 12 12 12 13 13 13 13 13 13 13 13 13 13 13 13 13 13 13 13 13 13 13 12 13 13 12 12
12 16 14 16 14 14 16 15 15 15 15 15 16 15 13 12 12 13 12 12 13 13 13 13 13 13 13 13 13 14 14 14 14 14 14 14 14 14 14 14 14 14 13 13
12 14 18 21 16 16 20 15 14 15 14 14 15 13 11 12 12 12 12 12 13 13 13 13 13 13 13 13 14 14 14 15 15 15 15 15 15 15 15 15 14 14 14 14
14 14 18 22 17 23 16 16 13 13 13 12 12 12 11 11 11 11 12 12 13 13 13 13 13 13 13 13 13 14 14 15 15 15 16 16 16 16 15 15 15 15 15 15
12 14 18 19 20 18 17 17 15 14 14 11 12 11 11 12 12 13 12 12 12 13 13 13 13 13 13 14 14 15 14 15 15 15 15 16 16 17 17 18 16 16 16 16
12 13 17 21 23 24 18 16 13 12 19 16 11 11 13 13 15 13 13 13 13 13 13 13 13 13 14 14 14 15 15 15 15 16 16 16 16 19 19 17 17 17 18 17
14 14 15 20 22 20 16 15 12 20 18 17 13 12 13 14 13 13 13 13 13 13 13 13 13 13 14 14 15 15 15 15 16 16 16 16 17 18 17 18 18 19 19 19
14 17 17 15 17 19 14 14 15 14 14 14 14 14 14 14 14 14 14 13 13 14 13 13 14 14 14 15 16 16 16 16 17 17 17 18 18 18 17 22 20 20 21 20
18 14 15 15 15 13 14 13 12 11 13 12 13 13 13 14 13 13 13 13 13 13 13 14 15 15 15 16 16 16 15 16 17 16 18 18 18 17 17 19 17 18 18 19
18 16 18 16 15 14 13 12 11 11 11 11 11 12 12 12 12 12 11 11 12 13 13 14 14 14 14 15 15 17 15 15 17 17 18 17 18 16 17 16 16 18 17 17
15 14 17 17 14 13 12 11 10 10 11 11 11 11 11 11 12 12 13 14 13 14 15 15 15 15 16 16 16 17 18 20 20 19 18 17 16 16 15 14 15 15 15 14
14 14 15 16 12 11 11 10 10 11 12 11 12 12 12 12 12 15 15 16 17 18 18 18 18 19 19 21 21 22 24 23 23 22 19 19 18 18 16 14 14 13 11 10